EW6292 Weather Reports


time (UTC)temp
C
wind
direction
speed
KPH
gust
KPH
rain 1hr
cm
rain 24hr
cm
rain mn
cm
humidity
%
barometer
mb
20260505093101 16 204 3.2 4.8 0.00 0.00 0.00 71 1007.8
20260505092601 16 209 1.6 4.8 0.00 0.00 0.00 70 1007.8
20260505092101 16 200 0.0 4.8 0.00 0.00 0.00 70 1007.6
20260505091601 16 191 1.6 4.8 0.00 0.00 0.00 69 1007.5
20260505091318 16 196 1.6 4.8 0.00 0.00 0.00 69 1007.6
20260505090822 16 182 0.0 4.8 0.00 0.00 0.00 69 1007.5
20260505090101 17 184 0.0 0.0 0.00 0.00 0.00 68 1007.6
20260505085557 17 174 0.0 0.0 0.00 0.00 0.00 68 1007.6
20260505085057 17 176 0.0 0.0 0.00 0.00 0.00 67 1007.8
20260505084557 17 176 0.0 0.0 0.00 0.00 0.00 68 1007.7
20260505084054 17 218 1.6 4.8 0.00 0.00 0.00 67 1007.6
20260505083551 17 192 3.2 4.8 0.00 0.00 0.00 67 1007.6
20260505083050 17 206 3.2 4.8 0.00 0.00 0.00 67 1007.6
20260505082821 17 210 3.2 4.8 0.00 0.00 0.00 67 1007.4
20260505082050 17 196 3.2 6.4 0.00 0.00 0.00 66 1007.2
20260505081551 17 222 3.2 6.4 0.00 0.00 0.00 66 1007.3
20260505081538 17 199 3.2 6.4 0.00 0.00 0.00 66 1007.3
20260505080551 17 188 3.2 8.0 0.00 0.00 0.00 66 1007.3
20260505080103 17 202 4.8 8.0 0.00 0.00 0.00 65 1007.1
20260505075551 17 192 4.8 9.7 0.00 0.00 0.00 66 1006.9
20260505075046 17 157 4.8 9.7 0.00 0.00 0.00 65 1006.9
20260505074547 17 196 4.8 8.0 0.00 0.00 0.00 65 1006.9
20260505074532 17 196 6.4 11.3 0.00 0.00 0.00 65 1006.9
20260505073547 17 187 4.8 11.3 0.00 0.00 0.00 65 1007.2
20260505073047 17 200 4.8 8.0 0.00 0.00 0.00 65 1007.3
20260505072547 18 192 4.8 8.0 0.00 0.00 0.00 65 1007.3
20260505072047 18 202 4.8 8.0 0.00 0.00 0.00 64 1007.3
20260505071547 18 186 4.8 8.0 0.00 0.00 0.00 64 1007.3
20260505071047 18 205 4.8 9.7 0.00 0.00 0.00 64 1007.3
20260505070544 18 213 4.8 12.9 0.00 0.00 0.00 63 1007.3
20260505070056 18 193 6.4 12.9 0.00 0.00 0.00 63 1007.2
20260505065546 18 211 6.4 11.3 0.00 0.00 0.00 63 1007.2
20260505065043 18 126 6.4 14.5 0.00 0.00 0.00 63 1007.2
20260505064545 18 199 6.4 14.5 0.00 0.00 0.00 63 1007.4
20260505064043 18 182 6.4 12.9 0.00 0.00 0.00 63 1007.4
20260505063544 18 211 6.4 12.9 0.00 0.00 0.00 63 1007.5
20260505063043 18 208 6.4 11.3 0.00 0.00 0.00 63 1007.6
20260505062545 18 198 6.4 16.1 0.00 0.00 0.00 63 1007.7
20260505062042 18 198 6.4 16.1 0.00 0.00 0.00 63 1007.7
20260505061542 18 195 6.4 9.7 0.00 0.00 0.00 63 1007.9
20260505061042 18 197 4.8 11.3 0.00 0.00 0.00 63 1008.1
20260505060541 18 196 4.8 11.3 0.00 0.00 0.00 63 1008.1
20260505060304 18 156 6.4 11.3 0.00 0.00 0.00 63 1008.1
20260505055807 18 191 6.4 9.7 0.00 0.00 0.00 63 1008.2
20260505055641 18 185 6.4 11.3 0.00 0.00 0.00 63 1008.2
20260505054538 18 196 6.4 9.7 0.00 0.00 0.00 63 1008.2
20260505054040 18 215 4.8 8.0 0.00 0.00 0.00 63 1008.3
20260505053536 18 166 4.8 8.0 0.00 0.00 0.00 63 1008.3
20260505053256 18 191 4.8 8.0 0.00 0.00 0.00 63 1008.3
20260505052536 18 205 4.8 8.0 0.00 0.00 0.00 63 1008.4
20260505052036 18 194 4.8 8.0 0.00 0.00 0.00 63 1008.4
20260505051534 18 194 4.8 8.0 0.00 0.00 0.00 62 1008.5
20260505051033 18 192 4.8 8.0 0.00 0.00 0.00 62 1008.6
20260505050530 18 198 4.8 8.0 0.00 0.00 0.00 62 1008.5
20260505050255 18 189 4.8 9.7 0.00 0.00 0.00 61 1008.6
20260505041526 18 196 4.8 9.7 0.00 0.00 0.00 61 1008.7
20260505041024 18 194 4.8 9.7 0.00 0.00 0.00 61 1008.6
20260505040524 18 188 4.8 8.0 0.00 0.00 0.00 61 1008.7
20260505040024 18 167 4.8 8.0 0.00 0.00 0.00 61 1008.6
20260505035524 18 184 4.8 8.0 0.00 0.00 0.00 62 1008.5
20260505035024 18 209 4.8 8.0 0.00 0.00 0.00 62 1008.5
20260505034524 18 192 4.8 8.0 0.00 0.00 0.00 62 1008.4
20260505034016 18 194 4.8 8.0 0.00 0.00 0.00 63 1008.5
20260505033510 18 186 4.8 8.0 0.00 0.00 0.00 63 1008.4
20260505033003 18 184 4.8 6.4 0.00 0.00 0.00 63 1008.5
20260505032721 18 198 4.8 8.0 0.00 0.00 0.00 63 1008.4
20260505031951 18 191 3.2 8.0 0.00 0.00 0.00 63 1008.5
20260505031448 18 188 3.2 6.4 0.00 0.00 0.00 63 1008.4
20260505030940 18 195 3.2 6.4 0.00 0.00 0.00 62 1008.2
20260505030434 18 194 3.2 6.4 0.00 0.00 0.00 62 1008.2
20260505025927 18 205 3.2 6.4 0.00 0.00 0.00 62 1008.1
20260505025421 18 194 3.2 6.4 0.00 0.00 0.00 62 1007.9
20260505024915 18 191 3.2 6.4 0.00 0.00 0.00 62 1007.8
20260505024640 18 194 3.2 6.4 0.00 0.00 0.00 62 1007.8
20260505023904 18 186 3.2 6.4 0.00 0.00 0.00 62 1007.8
20260505023846 18 171 3.2 6.4 0.00 0.00 0.00 61 1007.8
20260505023111 19 169 3.2 6.4 0.00 0.00 0.00 61 1007.8
20260505022346 19 173 3.2 6.4 0.00 0.00 0.00 61 1007.7
20260505021840 19 198 3.2 6.4 0.00 0.00 0.00 60 1007.7
20260505021333 19 182 3.2 6.4 0.00 0.00 0.00 60 1007.6
20260505020830 19 200 3.2 4.8 0.00 0.00 0.00 60 1007.5
20260505020322 19 200 3.2 4.8 0.00 0.00 0.00 59 1007.6
20260505020307 19 194 3.2 4.8 0.00 0.00 0.00 59 1007.3
20260505015310 19 188 3.2 6.4 0.00 0.00 0.00 59 1007.3
20260505014804 20 174 3.2 6.4 0.00 0.00 0.00 58 1007.3
20260505014258 20 193 3.2 6.4 0.00 0.00 0.00 58 1007.1
20260505014017 20 192 3.2 6.4 0.00 0.00 0.00 57 1007.0
20260505013245 20 190 3.2 6.4 0.00 0.00 0.00 56 1007.0
20260505012740 20 197 1.6 4.8 0.00 0.00 0.00 55 1006.9
20260505012237 21 197 0.0 0.0 0.00 0.00 0.00 54 1007.1
20260505011736 21 200 0.0 3.2 0.00 0.00 0.00 54 1007.1
20260505011236 21 197 0.0 3.2 0.00 0.00 0.00 53 1007.0
20260505010734 21 189 1.6 3.2 0.00 0.00 0.00 52 1006.9
20260505010234 21 189 1.6 4.8 0.00 0.00 0.00 51 1006.9
20260505005733 21 198 3.2 4.8 0.00 0.00 0.00 50 1006.9
20260505005232 21 205 3.2 6.4 0.00 0.00 0.00 50 1006.9
20260505004730 22 196 3.2 6.4 0.00 0.00 0.00 49 1007.0
20260505003728 22 213 4.8 8.0 0.00 0.00 0.00 49 1006.9
20260505003228 22 205 4.8 8.0 0.00 0.00 0.00 48 1007.0
20260505002942 23 202 4.8 6.4 0.00 0.00 0.00 47 1007.0
20260505002227 23 202 4.8 8.0 0.00 0.00 0.00 46 1007.1
20260505001726 23 191 6.4 11.3 0.00 0.00 0.00 46 1007.1
20260505001226 23 191 6.4 12.9 0.00 0.00 0.00 44 1007.0
20260505000945 23 200 6.4 12.9 0.00 0.00 0.00 44 1007.0
20260505000443 23 203 6.4 9.7 0.00 0.00 0.00 44 1006.9
20260504235726 23 202 6.4 12.9 0.00 0.00 0.00 44 1007.1
20260504235718 23 205 8.0 12.9 0.00 0.00 0.00 43 1007.1
20260504234719 24 205 6.4 11.3 0.00 0.00 0.00 43 1007.2
20260504234214 24 194 6.4 11.3 0.00 0.00 0.00 44 1007.3
20260504233931 24 192 8.0 14.5 0.00 0.00 0.00 43 1007.4
20260504233201 24 200 8.0 14.5 0.00 0.00 0.00 41 1007.4
20260504232933 25 210 6.4 11.3 0.00 0.00 0.00 42 1007.5
20260504232152 25 185 8.0 14.5 0.00 0.00 0.00 41 1007.5
20260504231644 25 206 9.7 14.5 0.00 0.00 0.00 40 1007.7
20260504231138 25 196 9.7 17.7 0.00 0.00 0.00 40 1007.8
20260504230631 25 196 8.0 17.7 0.00 0.00 0.00 40 1007.7
20260504230347 25 180 6.4 16.1 0.00 0.00 0.00 42 1007.6
20260504225620 25 194 6.4 14.5 0.00 0.00 0.00 41 1007.7
20260504225114 25 203 8.0 14.5 0.00 0.00 0.00 41 1007.6
20260504224608 26 197 9.7 14.5 0.00 0.00 0.00 42 1007.8
20260504224102 26 181 9.7 16.1 0.00 0.00 0.00 41 1007.8
20260504223556 26 201 9.7 16.1 0.00 0.00 0.00 40 1007.7
20260504223050 26 229 9.7 14.5 0.00 0.00 0.00 38 1007.7
20260504222544 26 183 9.7 14.5 0.00 0.00 0.00 38 1007.7
20260504222038 27 213 8.0 12.9 0.00 0.00 0.00 38 1007.6
20260504221534 27 198 8.0 16.1 0.00 0.00 0.00 40 1007.6
20260504221025 27 188 9.7 17.7 0.00 0.00 0.00 38 1007.6
20260504220519 27 190 9.7 17.7 0.00 0.00 0.00 37 1007.7
20260504220239 27 217 9.7 17.7 0.00 0.00 0.00 37 1007.7
20260504215508 27 221 9.7 17.7 0.00 0.00 0.00 38 1007.6
20260504215232 27 182 9.7 16.1 0.00 0.00 0.00 38 1007.6
20260504214506 27 213 11.3 17.7 0.00 0.00 0.00 40 1007.6
20260504214005 27 180 12.9 19.3 0.00 0.00 0.00 38 1007.6
20260504213506 27 177 11.3 19.3 0.00 0.00 0.00 37 1007.5
20260504213004 27 213 11.3 19.3 0.00 0.00 0.00 40 1007.4
20260504212728 27 181 11.3 19.3 0.00 0.00 0.00 38 1007.6
20260504212002 27 221 11.3 19.3 0.00 0.00 0.00 36 1007.4
20260504211502 27 209 12.9 22.5 0.00 0.00 0.00 37 1007.5
20260504211002 27 191 12.9 22.5 0.00 0.00 0.00 37 1007.6
20260504210502 27 214 12.9 19.3 0.00 0.00 0.00 37 1007.6
20260504210001 27 211 12.9 22.5 0.00 0.00 0.00 38 1007.5
20260504205732 27 200 12.9 22.5 0.00 0.00 0.00 36 1007.7
20260504205003 27 226 11.3 20.9 0.00 0.00 0.00 36 1007.6
20260504204722 27 159 9.7 19.3 0.00 0.00 0.00 37 1007.7
20260504203956 27 207 9.7 17.7 0.00 0.00 0.00 37 1007.7
20260504203501 27 204 11.3 17.7 0.00 0.00 0.00 41 1007.8
20260504202955 27 207 12.9 20.9 0.00 0.00 0.00 38 1007.8
20260504202454 27 203 12.9 20.9 0.00 0.00 0.00 37 1007.8
20260504201954 27 200 12.9 25.7 0.00 0.00 0.00 39 1007.8
20260504201454 28 204 9.7 25.7 0.00 0.00 0.00 38 1008.0
20260504200953 27 214 9.7 16.1 0.00 0.00 0.00 41 1008.0
20260504200454 27 224 11.3 19.3 0.00 0.00 0.00 39 1008.1
20260504195954 27 175 12.9 19.3 0.00 0.00 0.00 38 1008.1
20260504195453 27 169 12.9 17.7 0.00 0.00 0.00 37 1008.2
20260504194954 27 208 12.9 22.5 0.00 0.00 0.00 40 1008.1
20260504194454 27 201 12.9 22.5 0.00 0.00 0.00 39 1008.3
20260504193953 27 203 14.5 22.5 0.00 0.00 0.00 41 1008.3
20260504193453 27 189 14.5 22.5 0.00 0.00 0.00 39 1008.4
20260504192954 27 190 14.5 24.1 0.00 0.00 0.00 39 1008.4
20260504192454 27 226 14.5 24.1 0.00 0.00 0.00 38 1008.6
20260504191954 27 209 11.3 19.3 0.00 0.00 0.00 37 1008.4
20260504191454 27 193 12.9 20.9 0.00 0.00 0.00 39 1008.3
20260504190954 27 213 14.5 20.9 0.00 0.00 0.00 38 1008.4
20260504190451 27 217 16.1 25.7 0.00 0.00 0.00 38 1008.5
20260504185947 27 207 14.5 25.7 0.00 0.00 0.00 38 1008.7
20260504185448 27 214 12.9 24.1 0.00 0.00 0.00 38 1008.7
20260504184948 27 174 12.9 19.3 0.00 0.00 0.00 40 1008.6
20260504184447 27 209 11.3 19.3 0.00 0.00 0.00 40 1008.7
20260504183948 27 225 11.3 16.1 0.00 0.00 0.00 39 1008.7
20260504183448 27 221 11.3 20.9 0.00 0.00 0.00 40 1008.8
20260504182947 27 219 11.3 20.9 0.00 0.00 0.00 37 1009.0
20260504182447 28 221 9.7 19.3 0.00 0.00 0.00 38 1009.1
20260504182209 28 198 9.7 17.7 0.00 0.00 0.00 42 1009.1
20260504181448 27 186 9.7 17.7 0.00 0.00 0.00 41 1009.2
20260504181156 27 220 11.3 19.3 0.00 0.00 0.00 40 1009.3
20260504181041 27 203 11.3 19.3 0.00 0.00 0.00 40 1009.2
20260504180432 27 191 9.7 17.7 0.00 0.00 0.00 42 1009.4
20260504175448 27 184 9.7 19.3 0.00 0.00 0.00 39 1009.4
20260504175214 27 218 11.3 19.3 0.00 0.00 0.00 40 1009.4
20260504174447 27 220 11.3 19.3 0.00 0.00 0.00 41 1009.4
20260504174207 27 223 11.3 17.7 0.00 0.00 0.00 40 1009.5
20260504173448 27 201 12.9 17.7 0.00 0.00 0.00 41 1009.5
20260504173207 27 207 12.9 24.1 0.00 0.00 0.00 39 1009.7
20260504172720 27 200 12.9 24.1 0.00 0.00 0.00 40 1009.7
20260504171947 27 206 12.9 19.3 0.00 0.00 0.00 43 1009.7
20260504171446 27 184 12.9 19.3 0.00 0.00 0.00 43 1009.9
20260504170946 27 198 9.7 19.3 0.00 0.00 0.00 43 1009.8
20260504170447 27 207 8.0 12.9 0.00 0.00 0.00 46 1009.8
20260504150927 22 205 4.8 8.0 0.00 0.00 0.00 58 1011.1
20260504150428 22 217 4.8 9.7 0.00 0.00 0.00 58 1011.2
20260504140924 20 213 6.4 12.9 0.00 0.00 0.00 62 1011.2
20260504140421 20 184 6.4 9.7 0.00 0.00 0.00 63 1011.5
20260504130818 18 167 4.8 8.0 0.00 0.00 0.00 67 1011.4
20260504130313 18 194 4.8 8.0 0.00 0.00 0.00 67 1011.2
20260504120318 15 168 1.6 4.8 0.00 0.00 0.00 72 1011.0
20260504110223 14 196 1.6 4.8 0.00 0.00 0.00 70 1010.4
20260504100111 14 204 3.2 6.4 0.00 0.00 0.00 67 1010.5